Time,TemperatureF,DewpointF,PressureIn,WindDirection,WindDirectionDegrees,WindSpeedMPH,WindSpeedGustMPH,Humidity,HourlyPrecipIn,Conditions,Clouds,dailyrainin,SoftwareType,DateUTC
2013-02-18 10:37:00,24.3,1.1,29.95,NNW,338,13.0,18.0,36,0.00,,,0.00,Wunderground v.1.15,2013-02-18 15:37:00,
2013-02-18 10:42:00,24.8,1.6,29.94,West,277,28.0,28.0,36,0.00,,,0.00,Wunderground v.1.15,2013-02-18 15:42:00,
2013-02-18 10:47:00,24.9,1.1,29.95,NNW,334,12.0,15.0,35,0.00,,,0.00,Wunderground v.1.15,2013-02-18 15:47:00,
2013-02-18 10:48:00,25.0,1.8,29.95,NNW,331,13.0,15.0,36,0.00,,,0.00,Wunderground v.1.15,2013-02-18 15:48:00,
2013-02-18 10:52:00,25.2,0.7,29.94,WNW,303,15.0,37.0,34,0.00,,,0.00,Wunderground v.1.15,2013-02-18 15:52:00,
2013-02-18 10:53:00,25.2,0.7,29.95,WNW,302,13.0,37.0,34,0.00,,,0.00,Wunderground v.1.15,2013-02-18 15:53:00,
2013-02-18 10:57:00,25.6,2.9,29.95,NW,313,9.0,20.0,37,0.00,,,0.00,Wunderground v.1.15,2013-02-18 15:57:00,
2013-02-18 10:58:00,25.6,2.9,29.95,WNW,296,15.0,20.0,37,0.00,,,0.00,Wunderground v.1.15,2013-02-18 15:58:00,
2013-02-18 11:02:00,25.9,2.0,29.95,NW,322,16.0,24.0,35,0.00,,,0.00,Wunderground v.1.15,2013-02-18 16:02:00,
2013-02-18 11:03:00,25.8,1.9,29.95,NW,311,23.0,24.0,35,0.00,,,0.00,Wunderground v.1.15,2013-02-18 16:03:00,
2013-02-18 11:07:00,26.0,2.7,29.95,NW,310,16.0,24.0,36,0.00,,,0.00,Wunderground v.1.15,2013-02-18 16:07:00,
2013-02-18 11:08:00,26.0,2.7,29.95,NW,310,16.0,24.0,36,0.00,,,0.00,Wunderground v.1.15,2013-02-18 16:08:00,
2013-02-18 11:09:00,26.0,2.7,29.95,NW,310,16.0,24.0,36,0.00,,,0.00,Wunderground v.1.15,2013-02-18 16:09:00,
2013-02-18 11:13:00,26.3,1.0,29.95,NW,320,17.0,25.0,33,0.00,,,0.00,Wunderground v.1.15,2013-02-18 16:13:00,
2013-02-18 11:14:00,26.2,1.0,29.94,NW,321,10.0,25.0,33,0.00,,,0.00,Wunderground v.1.15,2013-02-18 16:14:00,
2013-02-18 11:18:00,26.7,2.0,29.95,NNW,346,23.0,30.0,34,0.00,,,0.00,Wunderground v.1.15,2013-02-18 16:18:00,
2013-02-18 11:19:00,26.8,2.1,29.95,North,350,17.0,30.0,34,0.00,,,0.00,Wunderground v.1.15,2013-02-18 16:19:00,
2013-02-18 11:23:00,27.1,1.8,29.95,NW,304,20.0,25.0,33,0.00,,,0.00,Wunderground v.1.15,2013-02-18 16:23:00,
2013-02-18 11:24:00,27.1,1.8,29.96,WNW,303,10.0,25.0,33,0.00,,,0.00,Wunderground v.1.15,2013-02-18 16:24:00,
2013-02-18 11:25:00,27.2,1.2,29.96,North,5,15.0,25.0,32,0.00,,,0.00,Wunderground v.1.15,2013-02-18 16:25:00,
2013-02-18 11:28:00,27.2,1.2,29.96,NNW,333,15.0,25.0,32,0.00,,,0.00,Wunderground v.1.15,2013-02-18 16:28:00,
2013-02-18 11:29:00,27.2,1.2,29.96,NNW,344,17.0,25.0,32,0.00,,,0.00,Wunderground v.1.15,2013-02-18 16:29:00,
2013-02-18 11:31:00,27.1,1.1,29.96,NW,309,23.0,23.0,32,0.00,,,0.00,Wunderground v.1.15,2013-02-18 16:31:00,
2013-02-18 11:34:00,27.1,1.1,29.96,NW,306,15.0,27.0,32,0.00,,,0.00,Wunderground v.1.15,2013-02-18 16:34:00,
2013-02-18 11:37:00,27.0,1.0,29.96,WNW,303,17.0,27.0,32,0.00,,,0.00,Wunderground v.1.15,2013-02-18 16:37:00,
2013-02-18 11:39:00,27.0,1.7,29.96,NW,312,13.0,28.0,33,0.00,,,0.00,Wunderground v.1.15,2013-02-18 16:39:00,
2013-02-18 11:42:00,27.0,1.7,29.96,NW,309,14.0,28.0,33,0.00,,,0.00,Wunderground v.1.15,2013-02-18 16:42:00,
2013-02-18 11:44:00,27.1,1.8,29.96,WNW,300,15.0,28.0,33,0.00,,,0.00,Wunderground v.1.15,2013-02-18 16:44:00,
2013-02-18 11:47:00,27.2,1.8,29.96,WNW,303,12.0,28.0,33,0.00,,,0.00,Wunderground v.1.15,2013-02-18 16:47:00,
2013-02-18 11:49:00,27.4,2.0,29.96,NW,311,19.0,28.0,33,0.00,,,0.00,Wunderground v.1.15,2013-02-18 16:49:00,
2013-02-18 11:52:00,27.5,1.4,29.96,North,9,12.0,21.0,32,0.00,,,0.00,Wunderground v.1.15,2013-02-18 16:52:00,
2013-02-18 11:54:00,27.5,0.8,29.96,WNW,301,14.0,27.0,31,0.00,,,0.00,Wunderground v.1.15,2013-02-18 16:54:00,
2013-02-18 11:57:00,27.4,0.7,29.96,NW,319,5.0,27.0,31,0.00,,,0.00,Wunderground v.1.15,2013-02-18 16:57:00,
2013-02-18 12:00:00,27.4,0.7,29.96,NW,323,13.0,20.0,31,0.00,,,0.00,Wunderground v.1.15,2013-02-18 17:00:00,
2013-02-18 12:02:00,27.3,-0.1,29.96,NW,311,12.0,26.0,30,0.00,,,0.00,Wunderground v.1.15,2013-02-18 17:02:00,
2013-02-18 12:05:00,27.4,0.7,29.96,NW,315,7.0,26.0,31,0.00,,,0.00,Wunderground v.1.15,2013-02-18 17:05:00,
2013-02-18 12:07:00,27.5,0.8,29.95,NW,307,12.0,26.0,31,0.00,,,0.00,Wunderground v.1.15,2013-02-18 17:07:00,
2013-02-18 12:10:00,27.6,1.5,29.96,NW,314,15.0,17.0,32,0.00,,,0.00,Wunderground v.1.15,2013-02-18 17:10:00,
2013-02-18 12:11:00,27.6,1.5,29.96,NNW,333,16.0,21.0,32,0.00,,,0.00,Wunderground v.1.15,2013-02-18 17:11:00,
2013-02-18 12:12:00,27.8,1.7,29.96,NNW,328,15.0,24.0,32,0.00,,,0.00,Wunderground v.1.15,2013-02-18 17:12:00,
2013-02-18 12:15:00,28.1,1.3,29.96,WNW,298,14.0,27.0,31,0.00,,,0.00,Wunderground v.1.15,2013-02-18 17:15:00,
2013-02-18 12:16:00,28.1,2.0,29.96,WNW,300,18.0,27.0,32,0.00,,,0.00,Wunderground v.1.15,2013-02-18 17:16:00,
2013-02-18 12:18:00,28.3,2.2,29.97,NNW,344,11.0,27.0,32,0.00,,,0.00,Wunderground v.1.15,2013-02-18 17:18:00,
2013-02-18 12:20:00,28.4,0.9,29.97,NW,312,16.0,20.0,30,0.00,,,0.00,Wunderground v.1.15,2013-02-18 17:20:00,
2013-02-18 12:21:00,28.3,0.8,29.97,NNW,329,12.0,28.0,30,0.00,,,0.00,Wunderground v.1.15,2013-02-18 17:21:00,
2013-02-18 12:23:00,28.3,0.8,29.97,NW,309,23.0,28.0,30,0.00,,,0.00,Wunderground v.1.15,2013-02-18 17:23:00,
2013-02-18 12:25:00,28.4,0.9,29.97,WNW,298,13.0,28.0,30,0.00,,,0.00,Wunderground v.1.15,2013-02-18 17:25:00,
2013-02-18 12:27:00,28.4,0.9,29.97,North,11,12.0,29.0,30,0.00,,,0.00,Wunderground v.1.15,2013-02-18 17:27:00,
2013-02-18 12:28:00,28.5,0.2,29.96,WNW,296,21.0,35.0,29,0.00,,,0.00,Wunderground v.1.15,2013-02-18 17:28:00,
2013-02-18 12:30:00,28.5,0.2,29.97,West,265,23.0,31.0,29,0.00,,,0.00,Wunderground v.1.15,2013-02-18 17:30:00,
2013-02-18 12:32:00,28.5,-0.5,29.97,North,355,10.0,31.0,28,0.00,,,0.00,Wunderground v.1.15,2013-02-18 17:32:00,
2013-02-18 12:33:00,28.5,0.2,29.98,North,5,13.0,31.0,29,0.00,,,0.00,Wunderground v.1.15,2013-02-18 17:33:00,
2013-02-18 12:35:00,28.8,0.5,29.97,North,355,3.0,31.0,29,0.00,,,0.00,Wunderground v.1.15,2013-02-18 17:35:00,
2013-02-18 12:37:00,28.9,1.3,29.97,WNW,296,14.0,31.0,30,0.00,,,0.00,Wunderground v.1.15,2013-02-18 17:37:00,
2013-02-18 12:38:00,29.0,0.7,29.97,West,279,9.0,31.0,29,0.00,,,0.00,Wunderground v.1.15,2013-02-18 17:38:00,
2013-02-18 12:41:00,29.2,0.1,29.97,WNW,302,14.0,22.0,28,0.00,,,0.00,Wunderground v.1.15,2013-02-18 17:41:00,
2013-02-18 12:42:00,29.2,0.1,29.97,North,350,18.0,22.0,28,0.00,,,0.00,Wunderground v.1.15,2013-02-18 17:42:00,
2013-02-18 12:44:00,29.4,1.7,29.97,NNW,342,16.0,22.0,30,0.00,,,0.00,Wunderground v.1.15,2013-02-18 17:44:00,
2013-02-18 12:47:00,29.5,1.1,29.97,NNW,335,14.0,24.0,29,0.00,,,0.00,Wunderground v.1.15,2013-02-18 17:47:00,
2013-02-18 12:48:00,29.6,1.9,29.97,NW,315,16.0,24.0,30,0.00,,,0.00,Wunderground v.1.15,2013-02-18 17:48:00,
2013-02-18 12:50:00,29.9,1.4,29.97,WNW,292,9.0,16.0,29,0.00,,,0.00,Wunderground v.1.15,2013-02-18 17:50:00,
2013-02-18 12:52:00,30.0,2.3,29.98,NNW,329,20.0,23.0,30,0.00,,,0.00,Wunderground v.1.15,2013-02-18 17:52:00,
2013-02-18 12:53:00,30.1,0.9,29.97,NW,316,14.0,32.0,28,0.00,,,0.00,Wunderground v.1.15,2013-02-18 17:53:00,
2013-02-18 12:55:00,29.8,-0.2,29.97,NNW,329,15.0,32.0,27,0.00,,,0.00,Wunderground v.1.15,2013-02-18 17:55:00,
2013-02-18 12:57:00,29.6,-0.3,29.97,NW,305,16.0,32.0,27,0.00,,,0.00,Wunderground v.1.15,2013-02-18 17:57:00,
2013-02-18 12:59:00,29.5,0.3,29.97,NNW,332,12.0,32.0,28,0.00,,,0.00,Wunderground v.1.15,2013-02-18 17:59:00,
2013-02-18 13:00:00,29.5,0.3,29.97,North,9,15.0,24.0,28,0.00,,,0.00,Wunderground v.1.15,2013-02-18 18:00:00,
2013-02-18 13:02:00,29.7,2.0,29.97,NNW,346,8.0,24.0,30,0.00,,,0.00,Wunderground v.1.15,2013-02-18 18:02:00,
2013-02-18 13:04:00,30.1,2.3,29.97,NW,323,8.0,24.0,30,0.00,,,0.00,Wunderground v.1.15,2013-02-18 18:04:00,
2013-02-18 13:06:00,30.4,1.9,29.97,North,355,16.0,24.0,29,0.00,,,0.00,Wunderground v.1.15,2013-02-18 18:06:00,
2013-02-18 13:07:00,30.2,0.2,29.97,NW,326,19.0,26.0,27,0.00,,,0.00,Wunderground v.1.15,2013-02-18 18:07:00,
2013-02-18 13:10:00,29.9,-0.1,29.97,NNW,329,18.0,26.0,27,0.00,,,0.00,Wunderground v.1.15,2013-02-18 18:10:00,
2013-02-18 13:11:00,29.7,-0.3,29.98,West,281,6.0,26.0,27,0.00,,,0.00,Wunderground v.1.15,2013-02-18 18:11:00,
2013-02-18 13:13:00,29.7,-0.3,29.98,NW,311,13.0,26.0,27,0.00,,,0.00,Wunderground v.1.15,2013-02-18 18:13:00,
2013-02-18 13:15:00,29.6,-0.3,29.98,WNW,301,6.0,26.0,27,0.00,,,0.00,Wunderground v.1.15,2013-02-18 18:15:00,
2013-02-18 13:16:00,29.6,-0.3,29.98,NNW,330,13.0,26.0,27,0.00,,,0.00,Wunderground v.1.15,2013-02-18 18:16:00,
2013-02-18 13:18:00,29.7,0.5,29.98,NW,320,19.0,26.0,28,0.00,,,0.00,Wunderground v.1.15,2013-02-18 18:18:00,
2013-02-18 13:20:00,29.9,0.7,29.98,NNW,330,8.0,16.0,28,0.00,,,0.00,Wunderground v.1.15,2013-02-18 18:20:00,
2013-02-18 13:22:00,30.0,0.8,29.99,WNW,300,20.0,20.0,28,0.00,,,0.00,Wunderground v.1.15,2013-02-18 18:22:00,
2013-02-18 13:23:00,29.9,-0.1,29.99,NNW,341,23.0,23.0,27,0.00,,,0.00,Wunderground v.1.15,2013-02-18 18:23:00,
2013-02-18 13:25:00,29.9,0.7,29.99,WNW,289,23.0,23.0,28,0.00,,,0.00,Wunderground v.1.15,2013-02-18 18:25:00,
2013-02-18 13:27:00,29.9,-0.1,29.99,WNW,292,19.0,26.0,27,0.00,,,0.00,Wunderground v.1.15,2013-02-18 18:27:00,
2013-02-18 13:28:00,30.0,0.8,29.98,WNW,301,10.0,27.0,28,0.00,,,0.00,Wunderground v.1.15,2013-02-18 18:28:00,
2013-02-18 13:30:00,29.9,-0.1,29.99,NW,319,20.0,26.0,27,0.00,,,0.00,Wunderground v.1.15,2013-02-18 18:30:00,
2013-02-18 13:32:00,29.9,0.7,29.99,NNW,329,8.0,26.0,28,0.00,,,0.00,Wunderground v.1.15,2013-02-18 18:32:00,
2013-02-18 13:33:00,30.0,1.5,29.99,WNW,296,20.0,26.0,29,0.00,,,0.00,Wunderground v.1.15,2013-02-18 18:33:00,
2013-02-18 13:36:00,30.1,0.1,29.99,NW,323,11.0,26.0,27,0.00,,,0.00,Wunderground v.1.15,2013-02-18 18:36:00,
2013-02-18 13:37:00,30.1,0.1,29.99,NW,312,20.0,26.0,27,0.00,,,0.00,Wunderground v.1.15,2013-02-18 18:37:00,
2013-02-18 13:39:00,30.0,0.0,29.99,WNW,300,19.0,26.0,27,0.00,,,0.00,Wunderground v.1.15,2013-02-18 18:39:00,
2013-02-18 13:41:00,30.0,0.0,29.99,NW,325,15.0,19.0,27,0.00,,,0.00,Wunderground v.1.15,2013-02-18 18:41:00,
2013-02-18 13:43:00,30.0,0.8,29.99,NW,305,12.0,19.0,28,0.00,,,0.00,Wunderground v.1.15,2013-02-18 18:43:00,
2013-02-18 13:44:00,30.2,0.9,29.99,West,276,14.0,20.0,28,0.00,,,0.00,Wunderground v.1.15,2013-02-18 18:44:00,
2013-02-18 13:47:00,30.5,1.2,29.99,NW,315,17.0,27.0,28,0.00,,,0.00,Wunderground v.1.15,2013-02-18 18:47:00,
2013-02-18 13:48:00,30.5,1.2,29.99,NW,324,17.0,27.0,28,0.00,,,0.00,Wunderground v.1.15,2013-02-18 18:48:00,
2013-02-18 13:49:00,30.3,0.3,29.99,West,265,14.0,27.0,27,0.00,,,0.00,Wunderground v.1.15,2013-02-18 18:49:00,
2013-02-18 13:52:00,30.5,0.4,29.99,NNW,327,6.0,23.0,27,0.00,,,0.00,Wunderground v.1.15,2013-02-18 18:52:00,
2013-02-18 13:54:00,30.6,2.1,29.99,WNW,300,20.0,23.0,29,0.00,,,0.00,Wunderground v.1.15,2013-02-18 18:54:00,
2013-02-18 13:55:00,30.7,1.4,29.99,WNW,294,11.0,23.0,28,0.00,,,0.00,Wunderground v.1.15,2013-02-18 18:55:00,
2013-02-18 13:58:00,30.8,1.5,29.99,NNW,345,17.0,23.0,28,0.00,,,0.00,Wunderground v.1.15,2013-02-18 18:58:00,
2013-02-18 13:59:00,30.9,0.8,30.00,NW,326,15.0,28.0,27,0.00,,,0.00,Wunderground v.1.15,2013-02-18 18:59:00,
2013-02-18 14:00:00,30.9,0.8,29.99,NNW,335,15.0,15.0,27,0.00,,,0.00,Wunderground v.1.15,2013-02-18 19:00:00,
2013-02-18 14:03:00,30.7,-0.2,30.00,WNW,302,12.0,24.0,26,0.00,,,0.00,Wunderground v.1.15,2013-02-18 19:03:00,
2013-02-18 14:04:00,30.7,-1.0,30.00,West,281,28.0,28.0,25,0.00,,,0.00,Wunderground v.1.15,2013-02-18 19:04:00,
2013-02-18 14:05:00,30.6,-1.1,29.99,NNW,337,22.0,28.0,25,0.00,,,0.00,Wunderground v.1.15,2013-02-18 19:05:00,
2013-02-18 14:08:00,30.3,-0.5,30.00,NNW,347,4.0,31.0,26,0.00,,,0.00,Wunderground v.1.15,2013-02-18 19:08:00,
2013-02-18 14:09:00,30.4,1.1,30.00,NW,307,11.0,31.0,28,0.00,,,0.00,Wunderground v.1.15,2013-02-18 19:09:00,
2013-02-18 14:10:00,30.4,1.1,30.00,WNW,289,16.0,16.0,28,0.00,,,0.00,Wunderground v.1.15,2013-02-18 19:10:00,
2013-02-18 14:14:00,30.6,-0.3,30.00,NW,316,6.0,22.0,26,0.00,,,0.00,Wunderground v.1.15,2013-02-18 19:14:00,
2013-02-18 14:15:00,30.6,0.5,30.00,NNW,345,5.0,22.0,27,0.00,,,0.00,Wunderground v.1.15,2013-02-18 19:15:00,
2013-02-18 14:19:00,30.6,-0.3,30.00,WNW,302,19.0,22.0,26,0.00,,,0.00,Wunderground v.1.15,2013-02-18 19:19:00,
2013-02-18 14:20:00,30.5,-1.2,30.00,NW,324,23.0,23.0,25,0.00,,,0.00,Wunderground v.1.15,2013-02-18 19:20:00,
2013-02-18 14:21:00,30.4,-0.5,30.00,NNW,342,14.0,23.0,26,0.00,,,0.00,Wunderground v.1.15,2013-02-18 19:21:00,
2013-02-18 14:24:00,30.4,-0.5,30.00,WNW,299,10.0,23.0,26,0.00,,,0.00,Wunderground v.1.15,2013-02-18 19:24:00,
2013-02-18 14:25:00,30.6,0.5,30.00,WNW,302,9.0,23.0,27,0.00,,,0.00,Wunderground v.1.15,2013-02-18 19:25:00,
2013-02-18 14:26:00,30.6,0.5,30.00,NNW,336,27.0,27.0,27,0.00,,,0.00,Wunderground v.1.15,2013-02-18 19:26:00,
2013-02-18 14:29:00,30.8,-0.1,30.00,NW,312,9.0,27.0,26,0.00,,,0.00,Wunderground v.1.15,2013-02-18 19:29:00,
2013-02-18 14:30:00,30.8,-0.1,30.00,NW,304,15.0,17.0,26,0.00,,,0.00,Wunderground v.1.15,2013-02-18 19:30:00,
2013-02-18 14:32:00,30.7,-0.2,30.00,NW,312,9.0,22.0,26,0.00,,,0.00,Wunderground v.1.15,2013-02-18 19:32:00,
2013-02-18 14:34:00,30.8,0.7,30.00,NW,316,7.0,24.0,27,0.00,,,0.00,Wunderground v.1.15,2013-02-18 19:34:00,
2013-02-18 14:35:00,30.9,0.8,30.00,NW,309,4.0,24.0,27,0.00,,,0.00,Wunderground v.1.15,2013-02-18 19:35:00,
2013-02-18 14:37:00,31.1,1.7,30.00,NNW,343,5.0,24.0,28,0.00,,,0.00,Wunderground v.1.15,2013-02-18 19:37:00,
2013-02-18 14:39:00,31.3,0.3,30.00,NNW,331,12.0,26.0,26,0.00,,,0.00,Wunderground v.1.15,2013-02-18 19:39:00,
2013-02-18 14:40:00,31.3,-0.5,30.00,NW,305,14.0,17.0,25,0.00,,,0.00,Wunderground v.1.15,2013-02-18 19:40:00,
2013-02-18 14:42:00,31.1,-0.7,30.00,NW,325,21.0,21.0,25,0.00,,,0.00,Wunderground v.1.15,2013-02-18 19:42:00,
2013-02-18 14:45:00,30.8,-1.0,30.00,NNW,346,23.0,30.0,25,0.00,,,0.00,Wunderground v.1.15,2013-02-18 19:45:00,
2013-02-18 14:47:00,30.7,-0.2,30.00,North,355,16.0,30.0,26,0.00,,,0.00,Wunderground v.1.15,2013-02-18 19:47:00,
2013-02-18 14:50:00,30.6,-1.1,30.00,WNW,302,11.0,16.0,25,0.00,,,0.00,Wunderground v.1.15,2013-02-18 19:50:00,
2013-02-18 14:52:00,30.6,-1.1,30.00,North,351,11.0,21.0,25,0.00,,,0.00,Wunderground v.1.15,2013-02-18 19:52:00,
2013-02-18 14:55:00,30.6,-1.1,30.00,NNW,348,7.0,24.0,25,0.00,,,0.00,Wunderground v.1.15,2013-02-18 19:55:00,
2013-02-18 14:57:00,30.7,-0.2,30.00,NNW,335,34.0,34.0,26,0.00,,,0.00,Wunderground v.1.15,2013-02-18 19:57:00,
2013-02-18 15:00:00,30.8,-1.0,30.00,North,360,3.0,13.0,25,0.00,,,0.00,Wunderground v.1.15,2013-02-18 20:00:00,
2013-02-18 15:02:00,31.0,-0.8,30.01,NNE,17,8.0,19.0,25,0.00,,,0.00,Wunderground v.1.15,2013-02-18 20:02:00,
2013-02-18 15:05:00,31.2,-0.6,30.00,NW,309,4.0,23.0,25,0.00,,,0.00,Wunderground v.1.15,2013-02-18 20:05:00,
2013-02-18 15:06:00,31.2,-0.6,30.00,North,355,15.0,23.0,25,0.00,,,0.00,Wunderground v.1.15,2013-02-18 20:06:00,
2013-02-18 15:08:00,31.2,-0.6,30.01,North,355,11.0,23.0,25,0.00,,,0.00,Wunderground v.1.15,2013-02-18 20:08:00,
2013-02-18 15:10:00,31.4,-0.4,30.01,NNW,344,11.0,19.0,25,0.00,,,0.00,Wunderground v.1.15,2013-02-18 20:10:00,
2013-02-18 15:11:00,31.4,-0.4,30.01,NW,321,9.0,19.0,25,0.00,,,0.00,Wunderground v.1.15,2013-02-18 20:11:00,
2013-02-18 15:13:00,31.4,-0.4,30.01,NNW,337,3.0,19.0,25,0.00,,,0.00,Wunderground v.1.15,2013-02-18 20:13:00,
2013-02-18 15:15:00,31.6,1.4,30.01,NNW,333,15.0,19.0,27,0.00,,,0.00,Wunderground v.1.15,2013-02-18 20:15:00,
2013-02-18 15:16:00,31.7,0.7,30.01,NNW,348,13.0,19.0,26,0.00,,,0.00,Wunderground v.1.15,2013-02-18 20:16:00,
2013-02-18 15:18:00,31.7,-1.0,30.01,NW,320,16.0,24.0,24,0.00,,,0.00,Wunderground v.1.15,2013-02-18 20:18:00,
2013-02-18 15:20:00,31.4,-1.3,30.01,NW,326,16.0,16.0,24,0.00,,,0.00,Wunderground v.1.15,2013-02-18 20:20:00,
2013-02-18 15:22:00,31.4,-1.3,30.01,WNW,283,18.0,18.0,24,0.00,,,0.00,Wunderground v.1.15,2013-02-18 20:22:00,
2013-02-18 15:24:00,31.1,-2.5,30.01,NW,317,20.0,22.0,23,0.00,,,0.00,Wunderground v.1.15,2013-02-18 20:24:00,
2013-02-18 15:26:00,31.1,-0.7,30.02,NW,323,8.0,22.0,25,0.00,,,0.00,Wunderground v.1.15,2013-02-18 20:26:00,
2013-02-18 15:27:00,31.2,-1.5,30.01,NW,320,9.0,24.0,24,0.00,,,0.00,Wunderground v.1.15,2013-02-18 20:27:00,
2013-02-18 15:29:00,31.3,-1.4,30.01,NW,306,17.0,24.0,24,0.00,,,0.00,Wunderground v.1.15,2013-02-18 20:29:00,
2013-02-18 15:31:00,31.4,-1.3,30.01,NW,305,10.0,22.0,24,0.00,,,0.00,Wunderground v.1.15,2013-02-18 20:31:00,
2013-02-18 15:32:00,31.3,-2.3,30.02,NW,305,29.0,29.0,23,0.00,,,0.00,Wunderground v.1.15,2013-02-18 20:32:00,
2013-02-18 15:34:00,31.1,-2.5,30.02,NW,321,16.0,29.0,23,0.00,,,0.00,Wunderground v.1.15,2013-02-18 20:34:00,
2013-02-18 15:36:00,31.1,-1.6,30.02,NNW,346,7.0,29.0,24,0.00,,,0.00,Wunderground v.1.15,2013-02-18 20:36:00,
2013-02-18 15:38:00,31.2,-1.5,30.02,NW,318,12.0,29.0,24,0.00,,,0.00,Wunderground v.1.15,2013-02-18 20:38:00,
2013-02-18 15:42:00,31.3,-2.3,30.02,WNW,286,13.0,25.0,23,0.00,,,0.00,Wunderground v.1.15,2013-02-18 20:42:00,
2013-02-18 15:45:00,31.5,-1.2,30.02,NNW,329,11.0,25.0,24,0.00,,,0.00,Wunderground v.1.15,2013-02-18 20:45:00,
2013-02-18 15:48:00,31.5,-3.1,30.02,WNW,298,13.0,25.0,22,0.00,,,0.00,Wunderground v.1.15,2013-02-18 20:48:00,
2013-02-18 15:51:00,31.4,-2.2,30.02,North,355,14.0,25.0,23,0.00,,,0.00,Wunderground v.1.15,2013-02-18 20:51:00,
2013-02-18 15:53:00,31.5,-2.1,30.03,NW,313,14.0,25.0,23,0.00,,,0.00,Wunderground v.1.15,2013-02-18 20:53:00,
2013-02-18 15:56:00,31.6,-2.0,30.03,NNW,342,14.0,25.0,23,0.00,,,0.00,Wunderground v.1.15,2013-02-18 20:56:00,
2013-02-18 16:00:00,31.7,-1.9,30.03,NNW,327,11.0,11.0,23,0.00,,,0.00,Wunderground v.1.15,2013-02-18 21:00:00,
2013-02-18 16:01:00,31.7,-2.9,30.03,WNW,294,11.0,14.0,22,0.00,,,0.00,Wunderground v.1.15,2013-02-18 21:01:00,
2013-02-18 16:03:00,31.8,-1.9,30.03,ENE,71,10.0,25.0,23,0.00,,,0.00,Wunderground v.1.15,2013-02-18 21:03:00,
2013-02-18 16:07:00,32.0,-1.7,30.03,NW,325,10.0,25.0,23,0.00,,,0.00,Wunderground v.1.15,2013-02-18 21:07:00,
2013-02-18 16:09:00,32.0,-1.7,30.03,NNW,332,10.0,25.0,23,0.00,,,0.00,Wunderground v.1.15,2013-02-18 21:09:00,
2013-02-18 16:11:00,32.0,-1.7,30.03,North,360,9.0,25.0,23,0.00,,,0.00,Wunderground v.1.15,2013-02-18 21:11:00,
2013-02-18 16:12:00,32.1,-0.7,30.03,NNW,343,9.0,25.0,24,0.00,,,0.00,Wunderground v.1.15,2013-02-18 21:12:00,
2013-02-18 16:15:00,32.2,-0.6,30.03,NW,325,9.0,25.0,24,0.00,,,0.00,Wunderground v.1.15,2013-02-18 21:15:00,
2013-02-18 16:17:00,32.3,-1.4,30.03,NNW,328,8.0,25.0,23,0.00,,,0.00,Wunderground v.1.15,2013-02-18 21:17:00,
2013-02-18 16:18:00,32.3,-1.4,30.03,WNW,300,8.0,25.0,23,0.00,,,0.00,Wunderground v.1.15,2013-02-18 21:18:00,
2013-02-18 16:22:00,32.0,-1.7,30.04,NW,305,8.0,25.0,23,0.00,,,0.00,Wunderground v.1.15,2013-02-18 21:22:00,
2013-02-18 16:23:00,32.0,-1.7,30.04,WNW,285,8.0,25.0,23,0.00,,,0.00,Wunderground v.1.15,2013-02-18 21:23:00,
2013-02-18 16:25:00,32.0,-1.7,30.04,NNW,331,9.0,25.0,23,0.00,,,0.00,Wunderground v.1.15,2013-02-18 21:25:00,
2013-02-18 16:27:00,32.0,-0.8,30.04,NW,317,9.0,25.0,24,0.00,,,0.00,Wunderground v.1.15,2013-02-18 21:27:00,
2013-02-18 16:29:00,32.1,-0.7,30.04,WNW,284,8.0,25.0,24,0.00,,,0.00,Wunderground v.1.15,2013-02-18 21:29:00,
2013-02-18 16:33:00,32.2,-0.6,30.04,NW,313,8.0,25.0,24,0.00,,,0.00,Wunderground v.1.15,2013-02-18 21:33:00,
2013-02-18 16:34:00,32.2,-0.6,30.04,NW,316,8.0,25.0,24,0.00,,,0.00,Wunderground v.1.15,2013-02-18 21:34:00,
2013-02-18 16:37:00,32.3,1.2,30.05,WNW,285,7.0,25.0,26,0.00,,,0.00,Wunderground v.1.15,2013-02-18 21:37:00,
2013-02-18 16:42:00,31.7,0.7,30.05,WNW,292,10.0,25.0,26,0.00,,,0.00,Wunderground v.1.15,2013-02-18 21:42:00,
2013-02-18 16:47:00,31.3,1.1,30.05,NW,308,11.0,25.0,27,0.00,,,0.00,Wunderground v.1.15,2013-02-18 21:47:00,
2013-02-18 16:50:00,31.2,1.0,30.05,NNW,338,10.0,10.0,27,0.00,,,0.00,Wunderground v.1.15,2013-02-18 21:50:00,
2013-02-18 16:55:00,31.0,0.9,30.06,West,278,10.0,25.0,27,0.00,,,0.00,Wunderground v.1.15,2013-02-18 21:55:00,
2013-02-18 16:56:00,31.0,0.9,30.05,WNW,303,10.0,25.0,27,0.00,,,0.00,Wunderground v.1.15,2013-02-18 21:56:00,
2013-02-18 16:59:00,30.8,0.7,30.05,WNW,290,11.0,25.0,27,0.00,,,0.00,Wunderground v.1.15,2013-02-18 21:59:00,
2013-02-18 17:01:00,30.7,0.6,30.06,NNW,333,12.0,25.0,27,0.00,,,0.00,Wunderground v.1.15,2013-02-18 22:01:00,
2013-02-18 17:04:00,30.6,1.3,30.05,NNW,333,12.0,25.0,28,0.00,,,0.00,Wunderground v.1.15,2013-02-18 22:04:00,
2013-02-18 17:06:00,30.5,0.4,30.05,NW,321,12.0,25.0,27,0.00,,,0.00,Wunderground v.1.15,2013-02-18 22:06:00,
2013-02-18 17:10:00,30.3,1.0,30.05,NW,305,11.0,11.0,28,0.00,,,0.00,Wunderground v.1.15,2013-02-18 22:10:00,
2013-02-18 17:13:00,30.1,0.1,30.05,WNW,302,11.0,25.0,27,0.00,,,0.00,Wunderground v.1.15,2013-02-18 22:13:00,
2013-02-18 17:15:00,30.1,-0.7,30.05,NW,315,13.0,25.0,26,0.00,,,0.00,Wunderground v.1.15,2013-02-18 22:15:00,
2013-02-18 17:19:00,29.9,-0.1,30.06,WNW,292,13.0,25.0,27,0.00,,,0.00,Wunderground v.1.15,2013-02-18 22:19:00,
2013-02-18 17:20:00,29.9,-0.1,30.06,WNW,299,14.0,14.0,27,0.00,,,0.00,Wunderground v.1.15,2013-02-18 22:20:00,
2013-02-18 17:24:00,29.8,-0.2,30.06,WNW,303,14.0,25.0,27,0.00,,,0.00,Wunderground v.1.15,2013-02-18 22:24:00,
2013-02-18 17:25:00,29.8,-0.2,30.06,NW,312,14.0,25.0,27,0.00,,,0.00,Wunderground v.1.15,2013-02-18 22:25:00,
2013-02-18 17:29:00,29.8,-0.2,30.06,WNW,288,13.0,25.0,27,0.00,,,0.00,Wunderground v.1.15,2013-02-18 22:29:00,
2013-02-18 17:30:00,29.8,-0.2,30.06,NW,323,13.0,13.0,27,0.00,,,0.00,Wunderground v.1.15,2013-02-18 22:30:00,
2013-02-18 17:32:00,29.8,-0.2,30.07,WNW,294,12.0,25.0,27,0.00,,,0.00,Wunderground v.1.15,2013-02-18 22:32:00,
2013-02-18 17:35:00,29.7,-0.3,30.07,WNW,293,11.0,25.0,27,0.00,,,0.00,Wunderground v.1.15,2013-02-18 22:35:00,
2013-02-18 17:36:00,29.7,0.5,30.07,WNW,298,11.0,25.0,28,0.00,,,0.00,Wunderground v.1.15,2013-02-18 22:36:00,
2013-02-18 17:41:00,29.7,1.3,30.07,WNW,283,9.0,12.0,29,0.00,,,0.00,Wunderground v.1.15,2013-02-18 22:41:00,
2013-02-18 17:42:00,29.6,0.4,30.07,WNW,302,9.0,25.0,28,0.00,,,0.00,Wunderground v.1.15,2013-02-18 22:42:00,
2013-02-18 17:43:00,29.6,0.4,30.07,WNW,302,9.0,25.0,28,0.00,,,0.00,Wunderground v.1.15,2013-02-18 22:43:00,
2013-02-18 17:47:00,29.6,-0.3,30.07,WNW,285,9.0,25.0,27,0.00,,,0.00,Wunderground v.1.15,2013-02-18 22:47:00,
2013-02-18 17:52:00,29.6,0.4,30.07,North,355,11.0,25.0,28,0.00,,,0.00,Wunderground v.1.15,2013-02-18 22:52:00,
2013-02-18 17:53:00,29.6,-0.3,30.07,WNW,300,11.0,25.0,27,0.00,,,0.00,Wunderground v.1.15,2013-02-18 22:53:00,
2013-02-18 17:55:00,29.5,-0.4,30.07,West,263,11.0,25.0,27,0.00,,,0.00,Wunderground v.1.15,2013-02-18 22:55:00,
2013-02-18 17:58:00,29.5,-0.4,30.08,NW,317,11.0,25.0,27,0.00,,,0.00,Wunderground v.1.15,2013-02-18 22:58:00,
2013-02-18 18:00:00,29.5,-0.4,30.08,WNW,290,11.0,25.0,27,0.00,,,0.00,Wunderground v.1.15,2013-02-18 23:00:00,
2013-02-18 18:03:00,29.5,-0.4,30.08,WNW,288,10.0,25.0,27,0.00,,,0.00,Wunderground v.1.15,2013-02-18 23:03:00,
2013-02-18 18:04:00,29.5,-1.2,30.08,NW,309,11.0,25.0,26,0.00,,,0.00,Wunderground v.1.15,2013-02-18 23:04:00,
2013-02-18 18:06:00,29.5,-0.4,30.08,NNW,343,11.0,25.0,27,0.00,,,0.00,Wunderground v.1.15,2013-02-18 23:06:00,
2013-02-18 18:09:00,29.5,-0.4,30.08,NW,318,11.0,25.0,27,0.00,,,0.00,Wunderground v.1.15,2013-02-18 23:09:00,
2013-02-18 18:11:00,29.4,-0.5,30.09,NW,304,11.0,25.0,27,0.00,,,0.00,Wunderground v.1.15,2013-02-18 23:11:00,
2013-02-18 18:12:00,29.4,0.3,30.09,NW,325,11.0,25.0,28,0.00,,,0.00,Wunderground v.1.15,2013-02-18 23:12:00,
2013-02-18 18:17:00,29.3,0.2,30.09,WNW,290,11.0,25.0,28,0.00,,,0.00,Wunderground v.1.15,2013-02-18 23:17:00,
2013-02-18 18:18:00,29.3,0.9,30.09,NW,321,10.0,25.0,29,0.00,,,0.00,Wunderground v.1.15,2013-02-18 23:18:00,
2013-02-18 18:19:00,29.3,0.2,30.09,WNW,294,11.0,25.0,28,0.00,,,0.00,Wunderground v.1.15,2013-02-18 23:19:00,
2013-02-18 18:22:00,29.2,0.1,30.09,WNW,288,11.0,25.0,28,0.00,,,0.00,Wunderground v.1.15,2013-02-18 23:22:00,
2013-02-18 18:25:00,29.2,0.1,30.09,WNW,292,11.0,25.0,28,0.00,,,0.00,Wunderground v.1.15,2013-02-18 23:25:00,
2013-02-18 18:26:00,29.2,0.8,30.10,NW,325,10.0,25.0,29,0.00,,,0.00,Wunderground v.1.15,2013-02-18 23:26:00,
2013-02-18 18:28:00,29.1,0.0,30.10,NW,309,11.0,25.0,28,0.00,,,0.00,Wunderground v.1.15,2013-02-18 23:28:00,
2013-02-18 18:31:00,29.1,0.0,30.10,NW,306,11.0,25.0,28,0.00,,,0.00,Wunderground v.1.15,2013-02-18 23:31:00,
2013-02-18 18:32:00,29.1,0.7,30.10,NW,306,11.0,25.0,29,0.00,,,0.00,Wunderground v.1.15,2013-02-18 23:32:00,
2013-02-18 18:36:00,29.0,1.4,30.10,WNW,284,10.0,25.0,30,0.00,,,0.00,Wunderground v.1.15,2013-02-18 23:36:00,
2013-02-18 18:37:00,29.0,1.4,30.10,WNW,287,9.0,25.0,30,0.00,,,0.00,Wunderground v.1.15,2013-02-18 23:37:00,
2013-02-18 18:38:00,29.0,1.4,30.10,WNW,292,9.0,25.0,30,0.00,,,0.00,Wunderground v.1.15,2013-02-18 23:38:00,
2013-02-18 18:42:00,28.8,1.2,30.10,WNW,293,6.0,25.0,30,0.00,,,0.00,Wunderground v.1.15,2013-02-18 23:42:00,
2013-02-18 18:44:00,28.8,1.2,30.10,WNW,300,6.0,25.0,30,0.00,,,0.00,Wunderground v.1.15,2013-02-18 23:44:00,
2013-02-18 18:49:00,28.6,1.0,30.10,WNW,300,7.0,25.0,30,0.00,,,0.00,Wunderground v.1.15,2013-02-18 23:49:00,
2013-02-18 18:50:00,28.6,1.0,30.10,NNW,331,7.0,25.0,30,0.00,,,0.00,Wunderground v.1.15,2013-02-18 23:50:00,
2013-02-18 18:54:00,28.5,1.6,30.10,NNW,336,7.0,25.0,31,0.00,,,0.00,Wunderground v.1.15,2013-02-18 23:54:00,
2013-02-18 18:56:00,28.5,1.6,30.10,NNW,328,7.0,25.0,31,0.00,,,0.00,Wunderground v.1.15,2013-02-18 23:56:00,
2013-02-18 18:59:00,28.4,1.6,30.10,NW,308,7.0,25.0,31,0.00,,,0.00,Wunderground v.1.15,2013-02-18 23:59:00,
2013-02-18 19:01:00,28.4,2.2,30.10,NNW,338,6.0,11.0,32,0.00,,,0.00,Wunderground v.1.15,2013-02-19 00:01:00,
2013-02-18 19:02:00,28.4,1.6,30.10,NW,304,7.0,13.0,31,0.00,,,0.00,Wunderground v.1.15,2013-02-19 00:02:00,
2013-02-18 19:06:00,28.3,0.8,30.10,WNW,300,9.0,25.0,30,0.00,,,0.00,Wunderground v.1.15,2013-02-19 00:06:00,
2013-02-18 19:07:00,28.3,0.8,30.10,WNW,296,10.0,25.0,30,0.00,,,0.00,Wunderground v.1.15,2013-02-19 00:07:00,
2013-02-18 19:08:00,28.3,0.8,30.10,WNW,294,11.0,25.0,30,0.00,,,0.00,Wunderground v.1.15,2013-02-19 00:08:00,
2013-02-18 19:13:00,28.2,0.7,30.10,WNW,294,14.0,25.0,30,0.00,,,0.00,Wunderground v.1.15,2013-02-19 00:13:00,
2013-02-18 19:16:00,28.1,0.6,30.10,WNW,285,14.0,25.0,30,0.00,,,0.00,Wunderground v.1.15,2013-02-19 00:16:00,
2013-02-18 19:19:00,28.1,0.6,30.10,NNW,327,15.0,25.0,30,0.00,,,0.00,Wunderground v.1.15,2013-02-19 00:19:00,
2013-02-18 19:22:00,28.1,1.3,30.11,NW,311,14.0,25.0,31,0.00,,,0.00,Wunderground v.1.15,2013-02-19 00:22:00,
2013-02-18 19:25:00,28.1,0.6,30.11,NW,313,14.0,25.0,30,0.00,,,0.00,Wunderground v.1.15,2013-02-19 00:25:00,
2013-02-18 19:28:00,28.1,1.3,30.11,WNW,294,13.0,25.0,31,0.00,,,0.00,Wunderground v.1.15,2013-02-19 00:28:00,
2013-02-18 19:29:00,28.0,1.2,30.11,NW,306,13.0,25.0,31,0.00,,,0.00,Wunderground v.1.15,2013-02-19 00:29:00,
2013-02-18 19:31:00,28.0,0.5,30.11,West,271,14.0,14.0,30,0.00,,,0.00,Wunderground v.1.15,2013-02-19 00:31:00,
2013-02-18 19:34:00,28.0,0.5,30.11,WNW,298,14.0,25.0,30,0.00,,,0.00,Wunderground v.1.15,2013-02-19 00:34:00,
2013-02-18 19:36:00,28.0,1.2,30.11,NW,307,13.0,25.0,31,0.00,,,0.00,Wunderground v.1.15,2013-02-19 00:36:00,
2013-02-18 19:40:00,28.0,1.2,30.11,NW,306,13.0,25.0,31,0.00,,,0.00,Wunderground v.1.15,2013-02-19 00:40:00,
2013-02-18 19:41:00,28.0,1.2,30.11,WNW,301,13.0,25.0,31,0.00,,,0.00,Wunderground v.1.15,2013-02-19 00:41:00,
2013-02-18 19:45:00,27.9,1.1,30.11,NW,306,13.0,25.0,31,0.00,,,0.00,Wunderground v.1.15,2013-02-19 00:45:00,
2013-02-18 19:47:00,27.9,1.8,30.11,NNW,338,12.0,25.0,32,0.00,,,0.00,Wunderground v.1.15,2013-02-19 00:47:00,
2013-02-18 19:49:00,27.9,1.1,30.11,NNW,329,12.0,25.0,31,0.00,,,0.00,Wunderground v.1.15,2013-02-19 00:49:00,
2013-02-18 19:52:00,27.9,1.8,30.12,West,267,10.0,25.0,32,0.00,,,0.00,Wunderground v.1.15,2013-02-19 00:52:00,
2013-02-18 19:54:00,27.9,1.8,30.12,WNW,295,9.0,25.0,32,0.00,,,0.00,Wunderground v.1.15,2013-02-19 00:54:00,
2013-02-18 19:55:00,27.9,1.8,30.12,WNW,301,9.0,25.0,32,0.00,,,0.00,Wunderground v.1.15,2013-02-19 00:55:00,
2013-02-18 19:58:00,27.8,1.0,30.12,WNW,282,9.0,25.0,31,0.00,,,0.00,Wunderground v.1.15,2013-02-19 00:58:00,
2013-02-18 20:01:00,27.8,1.0,30.12,NW,325,10.0,10.0,31,0.00,,,0.00,Wunderground v.1.15,2013-02-19 01:01:00,
2013-02-18 20:03:00,27.8,1.0,30.12,North,5,11.0,25.0,31,0.00,,,0.00,Wunderground v.1.15,2013-02-19 01:03:00,
2013-02-18 20:07:00,27.8,1.7,30.13,WNW,289,11.0,25.0,32,0.00,,,0.00,Wunderground v.1.15,2013-02-19 01:07:00,
2013-02-18 20:10:00,27.8,1.0,30.13,NNW,332,10.0,25.0,31,0.00,,,0.00,Wunderground v.1.15,2013-02-19 01:10:00,
2013-02-18 20:13:00,27.8,1.0,30.13,WNW,300,11.0,25.0,31,0.00,,,0.00,Wunderground v.1.15,2013-02-19 01:13:00,
2013-02-18 20:14:00,27.8,1.0,30.13,NNW,339,11.0,25.0,31,0.00,,,0.00,Wunderground v.1.15,2013-02-19 01:14:00,
2013-02-18 20:16:00,27.8,1.0,30.13,WNW,288,11.0,25.0,31,0.00,,,0.00,Wunderground v.1.15,2013-02-19 01:16:00,
2013-02-18 20:19:00,27.8,1.0,30.13,WNW,294,11.0,25.0,31,0.00,,,0.00,Wunderground v.1.15,2013-02-19 01:19:00,
2013-02-18 20:22:00,27.7,0.9,30.13,WNW,292,11.0,25.0,31,0.00,,,0.00,Wunderground v.1.15,2013-02-19 01:22:00,
2013-02-18 20:24:00,27.7,0.9,30.13,WNW,289,11.0,25.0,31,0.00,,,0.00,Wunderground v.1.15,2013-02-19 01:24:00,
2013-02-18 20:26:00,27.7,0.9,30.13,NW,309,11.0,25.0,31,0.00,,,0.00,Wunderground v.1.15,2013-02-19 01:26:00,
2013-02-18 20:29:00,27.7,0.9,30.13,WNW,290,10.0,25.0,31,0.00,,,0.00,Wunderground v.1.15,2013-02-19 01:29:00,
2013-02-18 20:31:00,27.7,1.6,30.13,NW,304,10.0,25.0,32,0.00,,,0.00,Wunderground v.1.15,2013-02-19 01:31:00,
2013-02-18 20:34:00,27.7,1.6,30.13,NW,304,9.0,25.0,32,0.00,,,0.00,Wunderground v.1.15,2013-02-19 01:34:00,
2013-02-18 20:36:00,27.6,1.5,30.13,NNW,339,8.0,25.0,32,0.00,,,0.00,Wunderground v.1.15,2013-02-19 01:36:00,
2013-02-18 20:40:00,27.6,1.5,30.14,NW,309,7.0,25.0,32,0.00,,,0.00,Wunderground v.1.15,2013-02-19 01:40:00,
2013-02-18 20:42:00,27.6,1.5,30.13,WSW,250,7.0,25.0,32,0.00,,,0.00,Wunderground v.1.15,2013-02-19 01:42:00,
2013-02-18 20:46:00,27.5,2.1,30.14,WNW,283,6.0,25.0,33,0.00,,,0.00,Wunderground v.1.15,2013-02-19 01:46:00,
2013-02-18 20:47:00,27.5,2.1,30.14,WNW,290,6.0,25.0,33,0.00,,,0.00,Wunderground v.1.15,2013-02-19 01:47:00,
2013-02-18 20:48:00,27.4,2.0,30.14,WNW,284,6.0,25.0,33,0.00,,,0.00,Wunderground v.1.15,2013-02-19 01:48:00,
2013-02-18 20:53:00,27.2,1.8,30.14,West,273,6.0,25.0,33,0.00,,,0.00,Wunderground v.1.15,2013-02-19 01:53:00,
2013-02-18 20:58:00,26.9,2.2,30.14,WNW,301,7.0,25.0,34,0.00,,,0.00,Wunderground v.1.15,2013-02-19 01:58:00,
2013-02-18 21:00:00,26.8,2.1,30.14,NW,311,8.0,8.0,34,0.00,,,0.00,Wunderground v.1.15,2013-02-19 02:00:00,
2013-02-18 21:04:00,26.6,4.4,30.14,WNW,289,8.0,25.0,38,0.00,,,0.00,Wunderground v.1.15,2013-02-19 02:04:00,
2013-02-18 21:07:00,26.5,3.1,30.14,NW,305,7.0,25.0,36,0.00,,,0.00,Wunderground v.1.15,2013-02-19 02:07:00,
2013-02-18 21:09:00,26.4,2.4,30.14,NW,304,8.0,25.0,35,0.00,,,0.00,Wunderground v.1.15,2013-02-19 02:09:00,
2013-02-18 21:14:00,26.3,2.3,30.14,NW,307,7.0,25.0,35,0.00,,,0.00,Wunderground v.1.15,2013-02-19 02:14:00,
2013-02-18 21:15:00,26.3,2.3,30.14,WNW,296,7.0,25.0,35,0.00,,,0.00,Wunderground v.1.15,2013-02-19 02:15:00,
2013-02-18 21:17:00,26.3,2.9,30.14,NW,322,7.0,25.0,36,0.00,,,0.00,Wunderground v.1.15,2013-02-19 02:17:00,
2013-02-18 21:22:00,26.2,2.2,30.14,NW,312,9.0,25.0,35,0.00,,,0.00,Wunderground v.1.15,2013-02-19 02:22:00,
2013-02-18 21:23:00,26.2,2.8,30.14,WNW,302,9.0,25.0,36,0.00,,,0.00,Wunderground v.1.15,2013-02-19 02:23:00,
2013-02-18 21:27:00,26.2,2.8,30.14,NW,308,9.0,25.0,36,0.00,,,0.00,Wunderground v.1.15,2013-02-19 02:27:00,
2013-02-18 21:29:00,26.1,2.7,30.14,NW,317,8.0,25.0,36,0.00,,,0.00,Wunderground v.1.15,2013-02-19 02:29:00,
2013-02-18 21:30:00,26.1,2.7,30.14,NW,315,8.0,8.0,36,0.00,,,0.00,Wunderground v.1.15,2013-02-19 02:30:00,
2013-02-18 21:33:00,26.1,2.7,30.14,WNW,298,7.0,25.0,36,0.00,,,0.00,Wunderground v.1.15,2013-02-19 02:33:00,
2013-02-18 21:36:00,26.0,2.7,30.14,NW,309,8.0,25.0,36,0.00,,,0.00,Wunderground v.1.15,2013-02-19 02:36:00,
2013-02-18 21:41:00,26.0,2.7,30.15,WNW,293,8.0,25.0,36,0.00,,,0.00,Wunderground v.1.15,2013-02-19 02:41:00,
2013-02-18 21:43:00,26.0,2.7,30.15,West,277,8.0,25.0,36,0.00,,,0.00,Wunderground v.1.15,2013-02-19 02:43:00,
2013-02-18 21:44:00,26.0,3.2,30.14,NW,306,8.0,25.0,37,0.00,,,0.00,Wunderground v.1.15,2013-02-19 02:44:00,
2013-02-18 21:49:00,26.0,2.7,30.14,NW,309,8.0,25.0,36,0.00,,,0.00,Wunderground v.1.15,2013-02-19 02:49:00,
2013-02-18 21:51:00,25.9,2.6,30.14,NW,305,8.0,25.0,36,0.00,,,0.00,Wunderground v.1.15,2013-02-19 02:51:00,
2013-02-18 21:55:00,25.9,3.2,30.14,WNW,295,7.0,25.0,37,0.00,,,0.00,Wunderground v.1.15,2013-02-19 02:55:00,
2013-02-18 21:56:00,25.8,3.1,30.14,WNW,284,7.0,25.0,37,0.00,,,0.00,Wunderground v.1.15,2013-02-19 02:56:00,
2013-02-18 22:01:00,25.9,2.6,30.15,WNW,292,6.0,25.0,36,0.00,,,0.00,Wunderground v.1.15,2013-02-19 03:01:00,
2013-02-18 22:04:00,25.8,3.1,30.15,WNW,298,5.0,25.0,37,0.00,,,0.00,Wunderground v.1.15,2013-02-19 03:04:00,
2013-02-18 22:06:00,25.7,3.0,30.14,NW,319,7.0,25.0,37,0.00,,,0.00,Wunderground v.1.15,2013-02-19 03:06:00,
2013-02-18 22:09:00,25.6,2.3,30.15,WNW,302,9.0,25.0,36,0.00,,,0.00,Wunderground v.1.15,2013-02-19 03:09:00,
2013-02-18 22:14:00,25.6,2.9,30.15,WNW,284,9.0,25.0,37,0.00,,,0.00,Wunderground v.1.15,2013-02-19 03:14:00,
2013-02-18 22:16:00,25.5,2.8,30.15,WNW,296,9.0,25.0,37,0.00,,,0.00,Wunderground v.1.15,2013-02-19 03:16:00,
2013-02-18 22:19:00,25.6,3.5,30.15,WNW,283,9.0,25.0,38,0.00,,,0.00,Wunderground v.1.15,2013-02-19 03:19:00,
2013-02-18 22:22:00,25.6,3.5,30.15,WSW,256,8.0,25.0,38,0.00,,,0.00,Wunderground v.1.15,2013-02-19 03:22:00,
2013-02-18 22:24:00,25.6,3.5,30.15,West,276,8.0,25.0,38,0.00,,,0.00,Wunderground v.1.15,2013-02-19 03:24:00,
2013-02-18 22:28:00,25.6,3.5,30.15,West,277,8.0,25.0,38,0.00,,,0.00,Wunderground v.1.15,2013-02-19 03:28:00,
2013-02-18 22:29:00,25.6,3.5,30.15,WNW,299,8.0,25.0,38,0.00,,,0.00,Wunderground v.1.15,2013-02-19 03:29:00,
2013-02-18 22:33:00,25.6,4.0,30.16,NW,313,8.0,25.0,39,0.00,,,0.00,Wunderground v.1.15,2013-02-19 03:33:00,
2013-02-18 22:34:00,25.6,4.0,30.16,NW,318,8.0,25.0,39,0.00,,,0.00,Wunderground v.1.15,2013-02-19 03:34:00,
2013-02-18 22:39:00,25.6,3.5,30.16,NW,304,8.0,25.0,38,0.00,,,0.00,Wunderground v.1.15,2013-02-19 03:39:00,
2013-02-18 22:40:00,25.5,3.4,30.16,WNW,294,8.0,25.0,38,0.00,,,0.00,Wunderground v.1.15,2013-02-19 03:40:00,
2013-02-18 22:41:00,25.5,3.4,30.16,WNW,294,8.0,25.0,38,0.00,,,0.00,Wunderground v.1.15,2013-02-19 03:41:00,
2013-02-18 22:44:00,25.5,3.9,30.16,WNW,298,9.0,25.0,39,0.00,,,0.00,Wunderground v.1.15,2013-02-19 03:44:00,
2013-02-18 22:46:00,25.5,3.9,30.16,NW,311,9.0,25.0,39,0.00,,,0.00,Wunderground v.1.15,2013-02-19 03:46:00,
2013-02-18 22:48:00,25.5,4.5,30.16,North,9,8.0,25.0,40,0.00,,,0.00,Wunderground v.1.15,2013-02-19 03:48:00,
2013-02-18 22:51:00,25.5,3.9,30.16,NNW,333,8.0,25.0,39,0.00,,,0.00,Wunderground v.1.15,2013-02-19 03:51:00,
2013-02-18 22:53:00,25.6,4.6,30.16,NW,315,7.0,25.0,40,0.00,,,0.00,Wunderground v.1.15,2013-02-19 03:53:00,
2013-02-18 22:55:00,25.6,4.0,30.16,NW,321,7.0,25.0,39,0.00,,,0.00,Wunderground v.1.15,2013-02-19 03:55:00,
2013-02-18 22:58:00,25.7,3.6,30.15,NNW,333,7.0,25.0,38,0.00,,,0.00,Wunderground v.1.15,2013-02-19 03:58:00,
2013-02-18 23:02:00,25.7,4.1,30.15,NNW,329,8.0,25.0,39,0.00,,,0.00,Wunderground v.1.15,2013-02-19 04:02:00,
2013-02-18 23:05:00,25.7,3.6,30.15,WNW,303,9.0,25.0,38,0.00,,,0.00,Wunderground v.1.15,2013-02-19 04:05:00,
2013-02-18 23:06:00,25.7,3.6,30.15,WNW,301,10.0,25.0,38,0.00,,,0.00,Wunderground v.1.15,2013-02-19 04:06:00,
2013-02-18 23:08:00,25.7,4.1,30.15,WNW,290,10.0,25.0,39,0.00,,,0.00,Wunderground v.1.15,2013-02-19 04:08:00,
2013-02-18 23:13:00,25.7,4.1,30.16,NW,319,9.0,25.0,39,0.00,,,0.00,Wunderground v.1.15,2013-02-19 04:13:00,
2013-02-18 23:14:00,25.7,4.1,30.16,WNW,292,9.0,25.0,39,0.00,,,0.00,Wunderground v.1.15,2013-02-19 04:14:00,
2013-02-18 23:15:00,25.7,4.7,30.16,WNW,289,9.0,25.0,40,0.00,,,0.00,Wunderground v.1.15,2013-02-19 04:15:00,
2013-02-18 23:18:00,25.7,4.1,30.16,WNW,290,9.0,25.0,39,0.00,,,0.00,Wunderground v.1.15,2013-02-19 04:18:00,
2013-02-18 23:20:00,25.7,4.1,30.16,WNW,299,9.0,9.0,39,0.00,,,0.00,Wunderground v.1.15,2013-02-19 04:20:00,
2013-02-18 23:23:00,25.6,4.0,30.16,WNW,291,9.0,25.0,39,0.00,,,0.00,Wunderground v.1.15,2013-02-19 04:23:00,
2013-02-18 23:25:00,25.7,4.1,30.16,WNW,298,10.0,25.0,39,0.00,,,0.00,Wunderground v.1.15,2013-02-19 04:25:00,
2013-02-18 23:28:00,25.6,4.0,30.16,NW,310,9.0,25.0,39,0.00,,,0.00,Wunderground v.1.15,2013-02-19 04:28:00,
2013-02-18 23:31:00,25.6,4.6,30.16,NW,317,10.0,25.0,40,0.00,,,0.00,Wunderground v.1.15,2013-02-19 04:31:00,
2013-02-18 23:34:00,25.6,4.6,30.16,NW,306,9.0,25.0,40,0.00,,,0.00,Wunderground v.1.15,2013-02-19 04:34:00,
2013-02-18 23:35:00,25.6,4.6,30.16,WNW,302,8.0,25.0,40,0.00,,,0.00,Wunderground v.1.15,2013-02-19 04:35:00,
2013-02-18 23:39:00,25.6,4.0,30.16,WNW,296,9.0,25.0,39,0.00,,,0.00,Wunderground v.1.15,2013-02-19 04:39:00,
2013-02-18 23:42:00,25.7,4.1,30.16,NNW,329,9.0,25.0,39,0.00,,,0.00,Wunderground v.1.15,2013-02-19 04:42:00,
2013-02-18 23:48:00,25.7,4.1,30.16,WNW,302,8.0,25.0,39,0.00,,,0.00,Wunderground v.1.15,2013-02-19 04:48:00,
2013-02-18 23:49:00,25.8,3.6,30.16,WNW,300,9.0,25.0,38,0.00,,,0.00,Wunderground v.1.15,2013-02-19 04:49:00,
2013-02-18 23:50:00,25.7,3.6,30.16,WNW,293,9.0,25.0,38,0.00,,,0.00,Wunderground v.1.15,2013-02-19 04:50:00,
2013-02-18 23:54:00,25.7,4.1,30.16,NW,320,8.0,25.0,39,0.00,,,0.00,Wunderground v.1.15,2013-02-19 04:54:00,
2013-02-18 23:57:00,25.8,3.6,30.16,WNW,296,9.0,25.0,38,0.00,,,0.00,Wunderground v.1.15,2013-02-19 04:57:00,
2013-02-18 23:59:00,25.8,4.2,30.16,NNW,329,9.0,25.0,39,0.00,,,0.00,Wunderground v.1.15,2013-02-19 04:59:00,